When you browse on this site, cookies collect data to enhance your experience and personalize the content and advertising you see.
Visit our Privacy Policy to learn more. By continuing to use the site, you agree to this use of cookies and data.
  • en Belgique
  • Liste des pays
  • À 7 jours
  • Température de l'eau
  • Carte satellitaire
  • Carte météo
  • Widgets météo
  • user-avatar
    Se connecter

    Météo par heure à Sables d'Or

    Ce jour, 18 Juin, Mardi

    Heure Température Précipitation Vent Pression Humidité
    00:00 +22°C° 0 mm 5 m/s 758 mmHg 79%
    01:00 +22°C° 0 mm 5 m/s 758 mmHg 77%
    02:00 +21°C° 0 mm 6 m/s 758 mmHg 75%
    03:00 +21°C° 0 mm 6 m/s 758 mmHg 74%
    04:00 +21°C° 0 mm 7 m/s 758 mmHg 73%
    05:00 +21°C° 0 mm 7 m/s 758 mmHg 73%
    06:00 +23°C° 0 mm 7 m/s 758 mmHg 69%
    07:00 +24°C° 0 mm 7 m/s 759 mmHg 66%
    08:00 +27°C° 0 mm 7 m/s 759 mmHg 62%
    09:00 +28°C° 0 mm 6 m/s 759 mmHg 58%
    10:00 +29°C° 0 mm 6 m/s 759 mmHg 55%
    11:00 +30°C° 0 mm 5 m/s 759 mmHg 51%
    12:00 +30°C° 0 mm 5 m/s 759 mmHg 50%
    13:00 +30°C° 0 mm 5 m/s 759 mmHg 50%
    14:00 +30°C° 0 mm 6 m/s 759 mmHg 50%
    15:00 +29°C° 0 mm 6 m/s 758 mmHg 52%
    16:00 +29°C° 0 mm 6 m/s 758 mmHg 54%
    17:00 +28°C° 0 mm 6 m/s 758 mmHg 56%
    18:00 +27°C° 0 mm 5 m/s 758 mmHg 65%
    19:00 +25°C° 0 mm 5 m/s 758 mmHg 74%
    20:00 +22°C° 0 mm 4 m/s 758 mmHg 82%
    21:00 +22°C° 0 mm 4 m/s 758 mmHg 84%
    22:00 +21°C° 0 mm 4 m/s 758 mmHg 85%
    23:00 +21°C° 0 mm 4 m/s 759 mmHg 86%

    Demain, 19 Juin, Mercredi

    Heure Température Précipitation Vent Pression Humidité
    00:00 +20°C° 0 mm 4 m/s 758 mmHg 85%
    01:00 +20°C° 0 mm 4 m/s 758 mmHg 84%
    02:00 +20°C° 0 mm 4 m/s 758 mmHg 84%
    03:00 +20°C° 0 mm 5 m/s 758 mmHg 81%
    04:00 +20°C° 0 mm 6 m/s 758 mmHg 79%
    05:00 +20°C° 0 mm 7 m/s 758 mmHg 76%
    06:00 +22°C° 0 mm 6 m/s 758 mmHg 69%
    07:00 +24°C° 0 mm 6 m/s 758 mmHg 62%
    08:00 +27°C° 0 mm 6 m/s 758 mmHg 55%
    09:00 +28°C° 0 mm 5 m/s 758 mmHg 52%
    10:00 +29°C° 0 mm 5 m/s 758 mmHg 49%
    11:00 +30°C° 0 mm 5 m/s 758 mmHg 46%
    12:00 +30°C° 0 mm 5 m/s 758 mmHg 46%
    13:00 +30°C° 0 mm 5 m/s 758 mmHg 47%
    14:00 +30°C° 0 mm 5 m/s 758 mmHg 47%
    15:00 +30°C° 0 mm 5 m/s 757 mmHg 50%
    16:00 +29°C° 0 mm 4 m/s 757 mmHg 53%
    17:00 +29°C° 0 mm 4 m/s 757 mmHg 56%
    18:00 +27°C° 0 mm 4 m/s 757 mmHg 63%
    19:00 +25°C° 0 mm 4 m/s 757 mmHg 71%
    20:00 +24°C° 0 mm 3 m/s 757 mmHg 78%
    21:00 +22°C° 0 mm 3 m/s 757 mmHg 79%
    22:00 +22°C° 0 mm 4 m/s 757 mmHg 80%
    23:00 +21°C° 0 mm 4 m/s 757 mmHg 81%

    Après-demain, 20 Juin, Jeudi

    Heure Température Précipitation Vent Pression Humidité
    00:00 +21°C° 0 mm 4 m/s 757 mmHg 80%
    01:00 +21°C° 0 mm 4 m/s 757 mmHg 79%
    02:00 +20°C° 0 mm 4 m/s 757 mmHg 79%
    03:00 +20°C° 0 mm 4 m/s 757 mmHg 78%
    04:00 +20°C° 0 mm 5 m/s 757 mmHg 77%
    05:00 +21°C° 0 mm 6 m/s 757 mmHg 77%
    06:00 +22°C° 0 mm 6 m/s 757 mmHg 72%
    07:00 +24°C° 0 mm 6 m/s 757 mmHg 68%
    08:00 +27°C° 0 mm 6 m/s 757 mmHg 64%
    09:00 +28°C° 0 mm 5 m/s 757 mmHg 60%
    10:00 +29°C° 0 mm 5 m/s 757 mmHg 57%
    11:00 +30°C° 0 mm 4 m/s 757 mmHg 53%
    12:00 +30°C° 0 mm 5 m/s 757 mmHg 53%
    13:00 +32°C° 0 mm 5 m/s 757 mmHg 52%
    14:00 +32°C° 0 mm 5 m/s 757 mmHg 52%
    15:00 +30°C° 0 mm 5 m/s 756 mmHg 54%
    16:00 +30°C° 0 mm 5 m/s 756 mmHg 56%
    17:00 +29°C° 0 mm 5 m/s 756 mmHg 58%
    18:00 +28°C° 0 mm 5 m/s 756 mmHg 64%
    19:00 +26°C° 0 mm 4 m/s 756 mmHg 71%
    20:00 +25°C° 0 mm 4 m/s 757 mmHg 77%
    21:00 +23°C° 0 mm 4 m/s 757 mmHg 79%
    22:00 +23°C° 0 mm 4 m/s 757 mmHg 81%
    23:00 +22°C° 0 mm 4 m/s 757 mmHg 83%

    21 Juin, Vendredi

    Heure Température Précipitation Vent Pression Humidité
    00:00 +22°C° 0 mm 4 m/s 757 mmHg 84%
    01:00 +22°C° 0 mm 4 m/s 757 mmHg 84%
    02:00 +21°C° 0 mm 4 m/s 757 mmHg 85%
    03:00 +21°C° 0 mm 5 m/s 757 mmHg 84%
    04:00 +21°C° 0 mm 5 m/s 757 mmHg 83%
    05:00 +21°C° 0 mm 5 m/s 757 mmHg 82%
    06:00 +23°C° 0 mm 5 m/s 757 mmHg 77%
    07:00 +26°C° 0 mm 5 m/s 758 mmHg 72%
    08:00 +28°C° 0 mm 5 m/s 758 mmHg 68%
    09:00 +29°C° 0 mm 5 m/s 758 mmHg 63%
    10:00 +30°C° 0 mm 5 m/s 758 mmHg 58%
    11:00 +32°C° 0 mm 4 m/s 758 mmHg 54%
    12:00 +32°C° 0 mm 5 m/s 758 mmHg 53%
    13:00 +32°C° 0 mm 5 m/s 758 mmHg 53%
    14:00 +32°C° 0 mm 5 m/s 758 mmHg 53%
    15:00 +32°C° 0 mm 5 m/s 758 mmHg 55%
    16:00 +30°C° 0 mm 5 m/s 757 mmHg 58%
    17:00 +30°C° 0 mm 5 m/s 757 mmHg 60%
    18:00 +28°C° 0 mm 5 m/s 757 mmHg 68%
    19:00 +27°C° 0 mm 4 m/s 757 mmHg 75%
    20:00 +25°C° 0 mm 4 m/s 758 mmHg 83%
    21:00 +25°C° 0 mm 4 m/s 758 mmHg 82%
    22:00 +25°C° 0 mm 4 m/s 758 mmHg 82%
    23:00 +23°C° 0 mm 4 m/s 758 mmHg 81%

    22 Juin, Samedi

    Heure Température Précipitation Vent Pression Humidité
    00:00 +23°C° 0 mm 4 m/s 758 mmHg 80%
    01:00 +23°C° 0 mm 5 m/s 758 mmHg 79%
    02:00 +23°C° 0 mm 5 m/s 758 mmHg 78%
    03:00 +23°C° 0 mm 5 m/s 758 mmHg 77%
    04:00 +23°C° 0 mm 5 m/s 758 mmHg 76%
    05:00 +23°C° 0 mm 5 m/s 758 mmHg 76%
    06:00 +25°C° 0 mm 5 m/s 758 mmHg 71%
    07:00 +27°C° 0 mm 5 m/s 758 mmHg 65%
    08:00 +29°C° 0 mm 5 m/s 759 mmHg 60%
    09:00 +30°C° 0 mm 5 m/s 759 mmHg 56%
    10:00 +32°C° 0 mm 5 m/s 759 mmHg 52%
    11:00 +33°C° 0 mm 4 m/s 759 mmHg 48%
    12:00 +33°C° 0 mm 4 m/s 759 mmHg 48%
    13:00 +33°C° 0 mm 4 m/s 759 mmHg 49%
    14:00 +34°C° 0 mm 5 m/s 759 mmHg 49%
    15:00 +33°C° 0 mm 4 m/s 759 mmHg 52%
    16:00 +31°C° 0 mm 3 m/s 758 mmHg 54%
    17:00 +30°C° 0 mm 2 m/s 758 mmHg 57%
    18:00 +29°C° 0 mm 2 m/s 759 mmHg 60%
    19:00 +27°C° 0 mm 2 m/s 759 mmHg 63%
    20:00 +26°C° 0 mm 2 m/s 759 mmHg 66%
    21:00 +26°C° 0 mm 3 m/s 759 mmHg 65%
    22:00 +25°C° 0 mm 3 m/s 759 mmHg 64%
    23:00 +25°C° 0 mm 4 m/s 759 mmHg 63%

    23 Juin, Dimanche

    Heure Température Précipitation Vent Pression Humidité
    00:00 +25°C° 0 mm 3 m/s 759 mmHg 64%
    01:00 +25°C° 0 mm 3 m/s 759 mmHg 65%
    02:00 +25°C° 0 mm 2 m/s 759 mmHg 66%
    03:00 +24°C° 0 mm 2 m/s 759 mmHg 66%
    04:00 +24°C° 0 mm 3 m/s 759 mmHg 67%
    05:00 +24°C° 0 mm 3 m/s 759 mmHg 68%
    06:00 +26°C° 0 mm 3 m/s 759 mmHg 63%
    07:00 +28°C° 0 mm 3 m/s 759 mmHg 58%
    08:00 +30°C° 0 mm 3 m/s 760 mmHg 53%
    09:00 +31°C° 0 mm 2 m/s 760 mmHg 49%
    10:00 +32°C° 0 mm 2 m/s 760 mmHg 46%
    11:00 +34°C° 0 mm 2 m/s 760 mmHg 42%
    12:00 +34°C° 0 mm 2 m/s 760 mmHg 43%
    13:00 +34°C° 0 mm 2 m/s 760 mmHg 44%
    14:00 +32°C° 0 mm 2 m/s 759 mmHg 45%
    15:00 +31°C° 0.2 mm 2 m/s 759 mmHg 50%
    16:00 +30°C° 0.2 mm 1 m/s 759 mmHg 55%
    17:00 +29°C° 0.2 mm 1 m/s 759 mmHg 60%
    18:00 +28°C° 0.1 mm 1 m/s 759 mmHg 63%
    19:00 +28°C° 0.1 mm 1 m/s 759 mmHg 66%
    20:00 +27°C° 0.1 mm 1 m/s 759 mmHg 69%
    21:00 +26°C° 0 mm 1 m/s 759 mmHg 70%
    22:00 +24°C° 0 mm 0 m/s 760 mmHg 71%
    23:00 +23°C° 0 mm 0 m/s 760 mmHg 72%
    Voir plus